Home   Weather   Paramus   Past weeks

Flag for USA Past Weather in Paramus, New Jersey, USA — Yesterday and Last 2 Weeks

Now
84 °F

Passing clouds.


Feels Like: 84 °F
Forecast: 67 / 85 °F
Wind: 7 mph from Southwest

Location: Teterboro Airport

Current Time: Aug 30, 2016 at 3:05:47 PM

Latest Report: Aug 30, 2016 at 1:51 PM


Visibility: 10 mi

Pressure: 30.10 "Hg

Humidity: 43%

Dew Point: 59 °F

Location of ParamusLocation

Past Weather in Paramus — Graph

°F

Paramus Temperature Yesterday

Maximum temperature yesterday: 90 °F (at 2:51 PM)
Minimum temperature yesterday: 73 °F (at 5:51 AM)
Average temperature yesterday: 81 °F

High & Low Weather Summary for the Past Weeks

 TemperatureHumidityPressure
High91 °F (Aug 15, 2:51 PM)91% (Aug 21, 9:51 PM)30.32 "Hg (Aug 21, 9:51 PM)
Low58 °F (Aug 23, 5:51 AM)33% (Aug 23, 3:51 PM)29.74 "Hg (Aug 21, 7:51 PM)
Average79 °F60%30.05 "Hg
* Reported Aug 15 1:51 PM — Aug 30 1:51 PM, Paramus, Weather by CustomWeather, © 2016

Note: Actual official high and low records may vary slightly from our data, if they occured in-between our weather recording intervals... More about our weather records

Advertising

Paramus Weather History for the Previous 24 Hours

Scroll right to see more
 ConditionsComfort  
Time TempWeatherWind HumidityBarometerVisibility
1:51 PM
Tue, Aug 30
84 °FPassing clouds.7 mph43%30.10 "Hg10 mi
12:51 PM83 °FPartly sunny.6 mph44%30.11 "Hg10 mi
11:51 AM82 °FPassing clouds.No wind46%30.13 "Hg10 mi
10:51 AM79 °FSunny.3 mph50%30.15 "Hg10 mi
9:51 AM77 °FSunny.5 mph52%30.16 "Hg10 mi
8:51 AM74 °FSunny.7 mph53%30.16 "Hg10 mi
7:51 AM72 °FSunny.5 mph55%30.16 "Hg10 mi
6:51 AM68 °FClear.5 mph63%30.16 "Hg10 mi
5:51 AM68 °FClear.5 mph65%30.15 "Hg10 mi
4:51 AM69 °FPassing clouds.3 mph66%30.14 "Hg10 mi
3:51 AM70 °FClear.5 mph64%30.14 "Hg10 mi
2:51 AM71 °FClear.3 mph61%30.14 "Hg10 mi
1:51 AM72 °FClear.5 mph57%30.13 "Hg10 mi
12:51 AM72 °FClear.5 mph57%30.13 "Hg10 mi
11:51 PM
Mon, Aug 29
75 °FClear.3 mph52%30.13 "Hg10 mi
10:51 PM77 °FClear.5 mph47%30.12 "Hg10 mi
9:51 PM79 °FClear.5 mph42%30.12 "Hg10 mi
8:51 PM81 °FClear.8 mph44%30.11 "Hg10 mi
7:51 PM83 °FSunny.7 mph40%30.08 "Hg10 mi
6:51 PM85 °FSunny.12 mph36%30.06 "Hg10 mi
5:51 PM87 °FSunny.8 mph33%30.05 "Hg10 mi
4:51 PM88 °FSunny.15 mph36%30.04 "Hg10 mi
3:51 PM89 °FSunny.13 mph34%30.05 "Hg10 mi
Weather by CustomWeather, © 2016

See weather overviewHow to use our weather pages